Location: Aldenham
(51.6667°N, 0.3500°W)
Time: 03:10:11
(UTC+00:00)

A-11 Canister half - Pass Details

Date: 19 February 2026
Orbit: 1512 x 1687 km, 47.2° (Epoch: 7 March)

Event Time Altitude Azimuth Distance (km) Brightness Sun altitude
Rises 22:05:39 0° 247° (WSW) 4,936 11.9 -41.6°
Reaches altitude 10° 22:08:52 10° 244° (WSW) 3,942 11.3 -42.0°
Enters shadow 22:13:03 29° 237° (WSW) 2,730 10.2 -42.4°
Maximum altitude 22:18:49 64° 166° (SSE) 1,801 - -43.0°
Drops below altitude 10° 22:28:29 10° 88° (E) 3,841 - -43.9°
Sets 22:31:34 0° 86° (E) 4,803 - -44.2°
